{"data":{"norad_id":67908,"intl_designator":"2026-036E","name":"STARLINK-36827","alt_names":[],"object_type":"PAYLOAD","status":"ACTIVE","operator":null,"country":"US","launch_date":"2026-02-22","launch_site_code":"AFETR","launch_vehicle":null,"mission":null,"orbit_class":"UNKNOWN","rcs_meters":null,"size_class":null,"mass_kg":null,"dimensions":null,"purposes":["comms"],"wikipedia_slug":null,"has_3d_model":false,"image_url":null,"decayed_at":null,"tle_current":{"epoch":"2026-05-24T11:58:44.456160Z","epoch_age_seconds":111487,"freshness":"FRESH","line1":"1 67908U 26036E   26144.49912565  .00014426  00000+0  53259-3 0  9998","line2":"2 67908  43.0010 177.3509 0001759 273.8532  86.2119 15.27588501 15313","mean_motion":15.27588501,"eccentricity":0.0001759,"inclination_deg":43.001,"raan_deg":177.3509,"arg_perigee_deg":273.8532,"mean_anomaly_deg":86.2119,"bstar":0.00053259,"rev_number":1531,"period_min":94.266224121047,"perigee_km":481.81676294871,"apogee_km":484.23051926225,"semimajor_km":6861.1606411055,"source":"CELESTRAK","updated_at":"2026-05-25T13:38:21.738215Z"}}}